AirNav   Everest Fuels
 
 1210 users online  

KIUA
(formerly D38)
Canandaigua Airport
Canandaigua, New York, USA

GOING TO CANANDAIGUA?


FAA INFORMATION EFFECTIVE 10 SEPTEMBER 2020

Location

FAA Identifier: IUA
Lat/Long: 42-54-32.0468N 077-19-30.8146W
42-54.534113N 077-19.513577W
42.9089019,-77.3252263
(estimated)
Elevation: 813.6 ft. / 248.0 m (surveyed)
Variation: 12W (2000)
From city: 3 miles NW of CANANDAIGUA, NY
Time zone: UTC -4 (UTC -5 during Standard Time)
Zip code: 14424

Airport Operations

Airport use: Open to the public
Activation date: 04/1948
Control tower: no
ARTCC: CLEVELAND CENTER
FSS: BUFFALO FLIGHT SERVICE STATION
NOTAMs facility: BUF (NOTAM-D service available)
Attendance: CONTINUOUS
7AM-5PM DLY, CALL FBO FOR AFT HRS SVC.
Wind indicator: lighted
Segmented circle: yes
Lights: ACTVT MIRL RWY 13/31 - CTAF.
Beacon: white-green (lighted land airport)
Operates sunset to sunrise.

Airport Communications

CTAF/UNICOM: 122.8
WX AWOS-3P: 118.675 (585-396-5861)
ROCHESTER APPROACH: 119.55
ROCHESTER DEPARTURE: 119.55
WX ASOS at ROC (20 nm NW): 124.825 (585-235-7322)

Nearby radio navigation aids

VOR radial/distance  VOR name  Freq  Var
GEEr085/18.5GENESEO VOR/DME108.2009W
ROCr141/19.7ROCHESTER VOR/DME110.0012W

 
NDB name  Hdg/Dist  Freq  Var  ID
PENN YAN335/19.826012WPYA .--. -.-- .-

Airport Services

Fuel available: 100LL JET-A+
Parking: hangars and tiedowns
Airframe service: MAJOR
Powerplant service: MAJOR
Bottled oxygen: NONE
Bulk oxygen: NONE

Runway Information

Runway 13/31

Dimensions: 5500 x 100 ft. / 1676 x 30 m
Surface: asphalt/grooved, in good condition
Weight bearing capacity: 
PCN 39 /F/D/X/T
Runway edge lights: medium intensity
RUNWAY 13  RUNWAY 31
Latitude: 42-54.780987N42-54.287240N
Longitude: 077-20.029750W077-18.997403W
Elevation: 788.6 ft.811.9 ft.
Traffic pattern: leftleft
Runway heading: 135 magnetic, 123 true315 magnetic, 303 true
Markings: nonprecision, in good conditionnonprecision, in good condition
Visual slope indicator: 2-light PAPI on left (3.00 degrees glide path)2-light PAPI on left (3.00 degrees glide path)
Runway end identifier lights: yesyes
Touchdown point: yes, no lightsyes, no lights
Obstructions: 7 ft. fence, 353 ft. from runway, 8 ft. right of centerline, 21:1 slope to clear38 ft. tree, 1069 ft. from runway, 131 ft. right of centerline, 22:1 slope to clear
9 FT BUSH AND FENCE 176 FT FM THR, 243 FT LEFT.

Airport Ownership and Management from official FAA records

Ownership: Publicly-owned
Owner: ONTARIO COUNTY IDA
20 ONTARIO ST
CANANDAIGUA, NY 14425
Phone 585-396-4460
Manager: BOB MINCER
2450 BRICKYARD ROAD
CANANDAIGUA, NY 14424
Phone 585-919-2772

Airport Operational Statistics

Aircraft based on the field: 64
Single engine airplanes: 58
Multi engine airplanes: 2
Helicopters: 4
    
Aircraft operations: avg 59/day *
48% transient general aviation
48% local general aviation
5% air taxi
* for 12-month period ending 28 July 2017

Additional Remarks

FOR SVCS AND ARPT CONDS CALL 585-394-4780.
FQT MEDIVAC HEL OPNS: MNT CTAF.
FOR CD CTC CLEVELAND ARTCC AT 440-774-0490.

Instrument Procedures

NOTE: All procedures below are presented as PDF files. If you need a reader for these files, you should download the free Adobe Reader.

NOT FOR NAVIGATION. Please procure official charts for flight.
FAA instrument procedures published for use from 10 September 2020 at 0901Z to 08 October 2020 at 0900z.

 
IAPs - Instrument Approach Procedures
RNAV (GPS) RWY 13   download (265KB)
RNAV (GPS) RWY 31   download (266KB)
VOR-A   download (206KB)
NOTE: Special Take-Off Minimums/Departure Procedures apply   download (291KB)

Other nearby airports with instrument procedures:

KROC - Greater Rochester International Airport (20 nm NW)
KPEO - Penn Yan Airport (20 nm SE)
KSDC - Williamson-Sodus Airport (22 nm NE)
0G7 - Finger Lakes Regional Airport (24 nm E)
KDSV - Dansville Municipal Airport (27 nm SW)
 
Loc | Ops | Rwys | IFR | FBO | Links
Com | Nav | Svcs | Stats | Notes
Area around KIUA (Canandaigua Airport)
 
Road maps at: MapQuest Bing Google
 
Aerial photo
WARNING: Photo may not be current or correct
Aerial photo of KIUA (Canandaigua Airport)
Photo by Bob Mincer
Photo taken 27-Jun-2019
looking south.

Do you have a better or more recent aerial photo of Canandaigua Airport that you would like to share? If so, please send us your photo.

 
Sectional chart

 
Airport distance calculator
Flying to Canandaigua Airport? Find the distance to fly.

From to KIUA

Sunrise and sunset
Times for 22-Sep-2020
 Local
(UTC-4)
 Zulu
(UTC)
Morning civil twilight06:3010:30
Sunrise06:5910:59
Sunset19:0523:05
Evening civil twilight19:3323:33

Current date and time
Zulu (UTC)  23-Sep-2020 01:03:55
Local (UTC-4)  22-Sep-2020 21:03:55
 
METAR
KPEO 
20nm SE 
230053Z AUTO 00000KT 10SM CLR 08/05 A3004 RMK AO2 SLP175 T00830050
KROC 
20nm NW 
230054Z 24004KT 10SM FEW100 SCT180 13/09 A3003 RMK AO2 SLP174 T01330089 $
KSDC 
22nm NE 
230055Z AUTO 00000KT 10SM CLR 10/07 A3003 RMK AO2
KDSV 
27nm SW 
230054Z AUTO 16004KT 10SM CLR 12/08 A3006 RMK AO2 SLP188 T01170078
KGVQ 
38nm W 
230056Z AUTO 24006KT 10SM CLR 14/11 A3004 RMK AO2 SLP170 T01440106
K6B9 
39nm E 
230055Z AUTO 00000KT 10SM CLR 08/07 A3002 RMK AO2
TAF
KROC 
20nm NW 
222033Z 2220/2318 VRB04KT P6SM FEW150 SCT250 FM222300 27006KT P6SM SCT100 SCT250 FM230300 26008KT P6SM SCT250 FM231500 30012G18KT P6SM SKC
NOTAMs
Click for the latest NOTAMs
NOTAMs are issued by the DoD/FAA and will open in a separate window not controlled by AirNav.

 

 
 

FBO, Fuel Providers, and Aircraft Ground Support

  
 Business Name 
 
 Contact 
 
 Services / Description 
 
Fuel Prices
 
Comments
  
MFC Aviation Services 585-394-4780
585-396-0584
[email]
Aviation fuel, Aircraft ground handling, Oxygen service, Aircraft parking (ramp or tiedown), Hangars, Hangar leasing / sales, GPU / Power cart, ...

More info about MFC Aviation Services
Phillips 66
100LL Jet A
FS --- $3.99 
SS $4.21 --- 
 Updated 15-Sep-2020
 
   1 read write
FS=Full service
SS=Self service
Update Fuel Prices
 

Would you like to see your business listed on this page?

 If your business provides an interesting product or service to pilots, flight crews, aircraft, or users of the Canandaigua Airport, you should consider listing it here.  To start the listing process, click on the button below
 
Add a business
 

Other Pages about Canandaigua Airport

www.canandaiguaairport.com
 
Update a link
 
Copyright © AirNav, LLC. All rights reserved. Privacy Policy  Contact